Location: *
(46.3500°N, 10.9000°E)
Time: 07:48:40
(UTC+00:00)

Vanguard 1 - All Passes

Search period start: 20 April 2021 00:00
Search period end: 30 April 2021 00:00
Orbit: 648 x 3834 km, 34.3° (Epoch: 19 April)

Date Brightness Start Highest point End Pass type
(mag) Time Alt. Az. Time Alt. Az. Time Alt. Az.
20 Apr - 09:55:15 10° SE 09:57:10 10° ESE 09:59:11 10° ESE daylight
20 Apr - 12:04:13 10° SSW 12:16:21 37° SE 12:34:37 10° E daylight
20 Apr - 14:22:50 10° WSW 14:39:14 57° S 15:01:46 10° E daylight
20 Apr - 16:44:38 10° W 17:04:27 55° SSW 17:25:59 10° SE daylight
20 Apr - 19:09:32 10° W 19:28:35 35° SW 19:45:42 10° SSE visible
20 Apr - 21:46:53 10° WSW 21:49:28 10° WSW 21:51:59 10° SW visible
21 Apr - 10:10:20 10° SSE 10:16:58 16° SE 10:25:28 10° E daylight
21 Apr - 12:24:11 10° SW 12:36:49 43° SSE 12:56:15 10° E daylight
21 Apr - 14:43:32 10° WSW 15:00:16 58° S 15:22:57 10° ESE daylight
21 Apr - 17:05:45 10° W 17:25:27 51° SSW 17:46:30 10° SE daylight
21 Apr - 19:31:29 10° W 19:48:59 29° SW 20:04:51 10° S visible
22 Apr - 10:28:36 10° S 10:36:54 21° SE 10:48:36 10° E daylight
22 Apr - 12:44:23 10° SW 12:57:25 48° SSE 13:17:46 10° E daylight
22 Apr - 15:04:19 10° WSW 15:21:22 58° S 15:44:02 10° ESE daylight
22 Apr - 17:26:56 10° W 17:46:21 46° SSW 18:06:47 10° SE daylight
22 Apr - 19:53:59 10° W 20:09:16 23° SW 20:23:21 10° S visible
23 Apr - 10:47:44 10° S 10:56:59 27° SE 11:10:54 10° E daylight
23 Apr - 13:04:47 10° SW 13:18:10 52° SSE 13:39:10 10° E daylight
23 Apr - 15:25:11 10° W 15:42:27 56° S 16:04:59 10° ESE daylight
23 Apr - 17:48:17 10° W 18:07:09 41° SSW 18:26:46 10° SSE daylight
23 Apr - 20:17:31 10° W 20:29:26 17° SW 20:40:39 10° SSW visible
24 Apr - 11:07:22 10° SSW 11:17:12 33° SE 11:32:48 10° E daylight
24 Apr - 13:25:18 10° WSW 13:39:03 55° SSE 14:00:31 10° E daylight
24 Apr - 15:46:07 10° W 16:03:31 54° SSW 16:25:45 10° SE daylight
24 Apr - 18:09:49 10° W 18:27:49 35° SW 18:46:22 10° SSE visible
24 Apr - 20:44:18 10° WSW 20:49:32 11° SW 20:54:39 10° SW visible
25 Apr - 09:14:48 10° SE 09:18:34 12° SE 09:23:02 10° ESE daylight
25 Apr - 11:27:18 10° SSW 11:37:36 39° SSE 11:54:29 10° E daylight
25 Apr - 13:45:56 10° WSW 14:00:00 56° S 14:21:46 10° ESE daylight
25 Apr - 16:07:08 10° W 16:24:32 50° SSW 16:46:19 10° SE daylight
25 Apr - 18:31:40 10° W 18:48:22 29° SW 19:05:28 10° S visible
26 Apr - 09:32:25 10° SSE 09:38:30 18° SE 09:46:48 10° E daylight
26 Apr - 11:47:29 10° SW 11:58:08 44° SSE 12:16:01 10° E daylight
26 Apr - 14:06:40 10° WSW 14:21:01 56° S 14:42:55 10° ESE daylight
26 Apr - 16:28:15 10° W 16:45:29 45° SSW 17:06:37 10° SE daylight
26 Apr - 18:54:04 10° W 19:08:49 23° SW 19:23:51 10° S visible
27 Apr - 09:51:23 10° S 09:58:34 23° SE 10:09:14 10° E daylight
27 Apr - 12:07:50 10° SW 12:18:49 48° SSE 12:37:28 10° E daylight
27 Apr - 14:27:29 10° WSW 14:42:04 54° S 15:03:55 10° ESE daylight
27 Apr - 16:49:31 10° W 17:06:22 39° SSW 17:26:35 10° SSE daylight
27 Apr - 19:17:32 10° W 19:29:11 17° SW 19:41:01 10° SSW visible
28 Apr - 10:10:57 10° SSW 10:18:45 29° SE 10:31:10 10° E daylight
28 Apr - 12:28:20 10° WSW 12:39:36 51° SSE 12:58:50 10° E daylight
28 Apr - 14:48:20 10° W 15:03:06 51° SSW 15:24:44 10° SE daylight
28 Apr - 17:10:59 10° W 17:27:09 34° SW 17:46:09 10° SSE daylight
28 Apr - 19:44:16 10° WSW 19:49:29 11° SW 19:54:44 10° SW visible
29 Apr - 10:30:52 10° SSW 10:39:06 35° SSE 10:52:51 10° E daylight
29 Apr - 12:48:56 10° WSW 13:00:29 53° S 13:20:07 10° ESE daylight
29 Apr - 15:09:18 10° W 15:24:07 47° SSW 15:45:19 10° SE daylight
29 Apr - 17:32:47 10° W 17:47:51 28° SW 18:05:09 10° S daylight
